Regional Weather Roundup
Issued by NWS

Home | Current Version | Previous Version | Text Only | Print | Product List | Glossary Off
Versions: 1 2 3 4 5 6 7 8 9 10 11 12 13 14 15 16 17 18 19 20 21 22 23 24 25 26 27 28 29 30 31 32 33 34 35 36 37 38 39 40 41 42 43 44 45 46 47 48 49 50

000
ASUS45 KTFX 231304
RWRMT
MONTANA HOURLY WEATHER ROUNDUP
NATIONAL WEATHER SERVICE GREAT FALLS MT
704 AM MDT WED APR 23 2014

NOTE: "FAIR" INDICATES FEW OR NO CLOUDS BELOW 12000 FEET WITH NO
SIGNIFICANT WEATHER AND/OR OBSTRUCTIONS TO VISIBILITY.

* THESE STATIONS ARE NOT UNDER NWS QUALITY CONTROL. THEY DO NOT
   REPORT WEATHER SUCH AS PRECIPITATION OR FOG.

MTZ001>007-043-231400-
WEST OF THE DIVIDE
CITY           SKY/WX    TMP DP  RH WIND       PRES   REMARKS
KALISPELL      PTCLDY    34  23  64 S8        29.76R WCI  27
MISSOULA       CLOUDY    36  27  70 W6        29.83R WCI  31
BUTTE          CLOUDY    30  19  64 W8        29.78R WCI  22
MULLAN PASS    CLOUDY    25  21  85 VRB7      29.76R WCI  17
* ESSEX        N/A       36  20  52 SE6G12     N/A   WCI  31
* LINCOLN      N/A       34  25  70 SW6G14     N/A   WCI  29
* LOOKOUT PASS N/A       31  25  78 E6         N/A   WCI  25
* POLSON       N/A       32  24  72 SE2G8      N/A
* RONAN APT    PTCLDY    37  25  62 S7         N/A   WCI  32
* SEELEY LAKE  N/A       29  26  89 NE2        N/A
* THOMP F APT  PTCLDY    26  19  75 NW8G22     N/A   WCI  18
* YAAK HILL    N/A       31  28  89 NE1        N/A
$$

MTZ008-052>055-231400-
SOUTHWEST MONTANA
CITY           SKY/WX    TMP DP  RH WIND       PRES   REMARKS
BOZEMAN        CLOUDY    34  30  85 S3        29.79R
DILLON         CLOUDY    30  21  69 W18       29.79R WCI  18
W YELLOWSTONE  N/A       26  25  96 SW2        N/A
* THREE FORKS  CLOUDY    34  34 100 N/A        N/A
* BOULDER HILL N/A       31  13  47 NE4G9      N/A
* MONIDA PASS  N/A       22  18  85 NW17       N/A   WCI   8
* RAYNOLDS PAS N/A       25 -20  12 N7         N/A   WCI  17
* WHITEHALL    N/A       35  27  73 W6G19      N/A   WCI  30
* WISE RIVER   N/A       29  20  69 W17G25     N/A   WCI  17
$$

MTZ009>010-012-014-046-048-049-054-231400-
EAST SLOPES AND CENTRAL MONTANA
CITY           SKY/WX    TMP DP  RH WIND       PRES   REMARKS
CUT BANK       MOCLDY    36  21  54 W23G31    29.55R WCI  24
GREAT FALLS    CLOUDY    36  27  70 SW16      29.63R WCI  26
HELENA         CLOUDY    37  23  57 W18G28    29.74R WCI  27
MALMSTROM AFB  CLOUDY    39  28  65 SW16      29.60R WCI  30
* CONRAD       MOCLDY    39  21  48 W13G23     N/A   WCI  31
* DEARBORN     N/A       41  21  45 S14G25     N/A
* EAST GLACIER N/A       33  14  45 W22G37     N/A   WCI  21
* MONARCH      N/A       32  20  61 SW12G20    N/A   WCI  23
* PENDROY      N/A       36  15  42 W29G40     N/A   WCI  23
* ROGERS PASS  N/A       29  21  72 SE16G23    N/A   WCI  17
* SAINT MARY   N/A       35  15  44 SW15G28    N/A   WCI  25
* SWEET GRASS  N/A       37  18  46 SW32G40    N/A   WCI  24
$$

MTZ011-013-016-021-035-040-045-047-050-051-231400-
NORTH CENTRAL MONTANA
CITY           SKY/WX    TMP DP  RH WIND       PRES   REMARKS
HAVRE          CLOUDY    43  32  65 SW15      29.55R
LEWISTOWN      CLOUDY    37  28  70 W21G31    29.59R WCI  26
* CHESTER      N/A       40  23  51 W18G29     N/A   WCI  31
* DENTON       N/A       40  26  57 W26G35     N/A   WCI  29
* GEYSER       N/A       36  26  67 W24        N/A   WCI  24
* JUDITH GAP   N/A       37  31  79 W8         N/A   WCI  31
* LOMA         N/A       42  34  73 SW12G20    N/A
$$

MTZ017>020-022>027-061-062-231400-
NORTHEAST MONTANA
CITY           SKY/WX    TMP DP  RH WIND       PRES   REMARKS
GLASGOW        LGT RAIN  48  43  83 W17G24    29.43R
GLENDIVE       CLOUDY    52  36  55 E6        29.38S
JORDAN         CLOUDY    46  39  77 NW31G39   29.47R
SIDNEY         CLOUDY    52  37  57 N/A       29.42R
WOLF POINT     MOCLDY    46  34  63 E10       29.39S
* BEAVER HILL  N/A       48  34  59 E20G27     N/A
* CIRCLE       N/A       47  35  63 SW2G8      N/A
* LINDSAY DVD  N/A       45  35  68 W3G8       N/A
* NAVAJO       N/A       46  38  74 E9         N/A
* SACO         N/A       45  41  86 W22G30     N/A
$$

MTZ028>042-056>058-231400-
SOUTHCENTRAL AND SOUTHEAST MONTANA
CITY           SKY/WX    TMP DP  RH WIND       PRES   REMARKS
BAKER          CLOUDY    50  41  71 SE7       29.39R
BILLINGS       CLOUDY    43  28  56 W21G28    29.58R
LIVINGSTON     CLOUDY    34  34 100 SW30G36   29.71R WCI  20
MILES CITY     HAZE      50  41  71 NW18      29.45R VSB 1
* LAUREL APT   MOCLDY    43  25  49 W22G28     N/A
* ROUNDUP APT  MOCLDY    45  34  65 NW9        N/A
* HYSHAM       N/A       43  39  86 W12G21     N/A
* LAME DEER    N/A       44  39  83 NW14G23    N/A
* REED POINT   N/A       38  28  67 W24G33     N/A   WCI  27
* ROSCOE HILL  N/A       34  27  76 W13G28     N/A   WCI  25
$$

REGIONAL REPORTS...DAKOTAS
CITY           SKY/WX    TMP DP  RH WIND       PRES   REMARKS
WILLISTON      MOCLDY    52  37  57 SE24G36   29.43S
DICKINSON      MOCLDY    46  36  68 E22G29    29.43R
CROSBY         PTCLDY    48  41  77 SE29G40   29.48S
TIOGA          CLOUDY    48  41  77 SE33G47   29.51R
WATFORD CITY   CLEAR     48  37  66 SE30G38   29.42F
BISMARCK       CLOUDY    50  37  61 E23G31    29.63R
GRAND FORKS    CLOUDY    45  28  51 SE15      29.91S
FARGO          LGT RAIN  46  34  63 SE20G29   29.92S
RAPID CITY     CLOUDY    55  43  64 CALM      29.43F
$$

REGIONAL REPORTS...WYOMING/IDAHO/WASHINGTON
CITY           SKY/WX    TMP DP  RH WIND       PRES   REMARKS
GILLETTE       CLOUDY    52  36  55 W14       29.50R
SHERIDAN       PTCLDY    46  37  71 VRB6G17   29.52R
CODY           MOCLDY    43  27  53 NW9G20    29.57R
YELLOWSTONE LA CLOUDY    25  21  85 W6        29.73R WCI  18
SALMON         MOCLDY    34  21  59 SW6       29.88R WCI  29
MULLAN PASS    CLOUDY    25  21  85 VRB7      29.76S WCI  17
SPOKANE        CLOUDY    34  30  85 S7        29.83S WCI  28

$$




USA.gov is the U.S. government's official web portal to all federal, state and local government web resources and services.